period_start,C,m1,H,J0,J1,J2,J3,J4,J5,JA,JB,JC,JD,JJ,JK,JN,#
2017-01-25 00:04:36,0.42,14.72,0.00,18.51,21.61,25.50,14.68,54.50,1002.53,2047.99,928.51,1107.74,1241.65,600.03,596.78,36.22,0000 0000 0000 0000 000000
2017-01-25 00:09:37,0.43,14.75,0.00,18.56,21.64,25.49,14.59,54.49,1002.46,2047.98,926.93,1106.65,1240.39,599.90,596.58,36.27,0000 0000 0000 0000 000000
2017-01-25 00:14:39,0.38,14.77,0.00,18.59,21.67,25.55,14.68,54.39,1002.48,2047.90,925.45,1105.61,1239.09,599.93,596.49,36.32,0000 0000 0000 0000 000000
2017-01-25 00:19:40,0.36,14.79,0.00,18.66,21.71,25.59,14.70,54.27,1002.46,2047.54,923.86,1104.48,1237.77,599.94,596.41,36.38,0000 0000 0000 0000 000000
2017-01-25 00:24:41,0.37,14.80,0.00,18.71,21.74,25.59,14.61,54.25,1002.46,2047.14,922.39,1103.42,1236.51,599.83,596.20,36.43,0000 0000 0000 0000 000000
2017-01-25 00:29:43,0.41,14.83,0.00,18.76,21.77,25.65,14.57,54.27,1002.49,2047.02,920.82,1102.29,1235.24,599.80,596.11,36.48,0000 0000 0000 0000 000000
2017-01-25 00:34:44,0.39,14.85,0.00,18.83,21.81,25.69,14.61,54.31,1002.47,2047.00,919.39,1101.22,1233.92,600.09,596.13,36.53,0000 0000 0000 0000 000000
2017-01-25 00:39:45,0.44,14.87,0.00,18.88,21.84,25.73,14.70,54.19,1002.46,2047.00,917.83,1100.14,1232.68,600.23,596.32,36.58,0000 0000 0000 0000 000000
2017-01-25 00:44:46,0.41,14.89,0.00,18.94,21.88,25.78,14.60,54.37,1002.34,2047.00,916.36,1099.05,1231.43,600.04,595.88,36.63,0000 0000 0000 0000 000000
2017-01-25 00:49:47,0.46,14.91,0.00,19.02,21.92,25.82,14.62,54.33,1002.18,2047.00,914.79,1097.92,1230.08,600.06,595.61,36.68,0000 0000 0000 0000 000000
2017-01-25 00:54:49,0.43,14.94,0.00,19.07,21.97,25.86,14.61,54.20,1001.99,2046.99,913.30,1096.80,1228.75,600.17,595.68,36.73,0000 0000 0000 0000 000000
2017-01-25 00:59:50,0.46,14.96,0.00,19.14,22.01,25.92,14.57,54.19,1001.97,2046.92,911.69,1095.68,1227.44,599.86,595.08,36.78,0000 0000 0000 0000 000000
2017-01-25 01:04:52,0.33,14.98,0.00,19.19,22.06,25.97,14.59,54.09,1002.03,2046.45,910.12,1094.55,1226.08,600.23,595.27,36.83,0000 0000 0000 0000 000000
2017-01-25 01:09:53,0.42,15.00,0.00,19.25,22.10,26.00,14.62,54.31,1001.98,2046.08,908.56,1093.42,1224.73,600.01,595.04,36.88,0000 0000 0000 0000 000000
2017-01-25 01:14:54,0.41,15.02,0.00,19.32,22.15,26.06,14.63,54.27,1002.19,2046.00,907.04,1092.33,1223.43,600.07,595.07,36.93,0000 0000 0000 0000 000000
2017-01-25 01:19:56,0.48,15.04,0.00,19.40,22.20,26.13,14.64,54.38,1002.30,2046.00,905.40,1091.14,1221.98,600.13,594.97,36.98,0000 0000 0000 0000 000000
2017-01-25 01:24:57,0.47,15.07,0.00,19.46,22.25,26.18,14.57,54.22,1002.45,2045.98,903.80,1089.88,1220.57,599.95,594.77,37.03,0000 0000 0000 0000 000000
2017-01-25 01:29:59,0.40,15.09,0.00,19.52,22.30,26.24,14.60,54.12,1002.46,2045.93,902.31,1088.77,1219.32,599.96,594.73,37.08,0000 0000 0000 0000 000000
2017-01-25 01:35:00,0.37,15.11,0.00,19.57,22.35,26.28,14.63,54.12,1002.47,2045.48,900.76,1087.63,1217.94,600.12,594.65,37.13,0000 0000 0000 0000 000000
2017-01-25 01:40:02,0.37,15.13,0.00,19.62,22.41,26.35,14.55,54.20,1002.49,2045.07,899.26,1086.67,1216.65,599.93,594.51,37.18,0000 0000 0000 0000 000000
2017-01-25 01:45:03,0.45,15.15,0.00,19.67,22.46,26.41,14.57,54.23,1002.46,2045.00,897.71,1085.60,1215.39,599.66,594.09,37.24,0000 0000 0000 0000 000000
2017-01-25 01:50:05,0.40,15.17,0.00,19.75,22.52,26.47,14.47,54.48,1002.42,2044.98,896.27,1084.47,1214.15,600.02,594.24,37.29,0000 0000 0000 0000 000000
2017-01-25 01:55:06,0.44,15.19,0.00,19.81,22.58,26.51,14.53,54.41,1002.09,2044.93,894.79,1083.37,1212.84,599.91,593.83,37.34,0000 0000 0000 0000 000000
2017-01-25 02:00:07,0.28,15.21,0.00,19.87,22.64,26.58,14.52,54.52,1002.22,2044.29,893.36,1082.25,1211.56,599.90,593.74,37.39,0000 0000 0000 0000 000000
2017-01-25 02:05:09,0.44,15.23,0.00,19.89,22.69,26.64,14.53,54.44,1002.45,2044.01,891.77,1081.12,1210.26,599.84,593.85,37.44,0000 0000 0000 0000 000000
2017-01-25 02:10:10,0.42,15.25,0.00,19.93,22.75,26.70,14.57,54.23,1002.48,2044.00,890.25,1080.01,1208.89,599.89,593.78,37.49,0000 0000 0000 0000 000000
2017-01-25 02:15:11,0.48,15.27,0.00,19.97,22.81,26.77,14.56,54.27,1002.71,2043.94,888.71,1078.89,1207.63,599.85,593.83,37.54,0000 0000 0000 0000 000000
2017-01-25 02:20:13,0.28,15.29,0.00,20.02,22.87,26.82,14.53,54.25,1002.59,2043.32,887.27,1077.78,1206.31,600.01,593.82,37.59,0000 0000 0000 0000 000000
2017-01-25 02:25:14,0.44,15.31,0.00,20.04,22.92,26.87,14.55,54.23,1002.46,2043.01,885.74,1076.73,1205.01,600.05,593.55,37.64,0000 0000 0000 0000 000000
2017-01-25 02:30:15,0.42,15.33,0.00,20.09,22.98,26.92,14.51,54.27,1002.46,2043.00,884.36,1075.67,1203.77,599.72,593.25,37.69,0000 0000 0000 0000 000000
2017-01-25 02:35:17,0.45,15.35,0.00,20.12,23.03,26.99,14.62,54.41,1002.23,2042.99,882.84,1074.59,1202.53,600.32,593.72,37.74,0000 0000 0000 0000 000000
2017-01-25 02:40:18,0.32,15.37,0.00,20.21,23.09,27.04,14.56,54.71,1001.96,2042.61,881.38,1073.52,1201.26,600.05,593.09,37.79,0000 0000 0000 0000 000000
2017-01-25 02:45:19,0.38,15.39,0.00,20.27,23.14,27.09,14.47,54.77,1001.91,2042.07,879.87,1072.50,1199.96,599.79,592.57,37.84,0000 0000 0000 0000 000000
2017-01-25 02:50:21,0.43,15.41,0.00,20.28,23.20,27.13,14.61,54.95,1001.95,2042.00,878.47,1071.45,1198.69,600.53,593.38,37.89,0000 0000 0000 0000 000000
2017-01-25 02:55:22,0.44,15.44,0.00,20.31,23.25,27.17,14.58,55.10,1001.72,2041.99,876.92,1070.35,1197.44,599.98,592.66,37.94,0000 0000 0000 0000 000000
2017-01-25 03:00:23,0.42,15.46,0.00,20.32,23.31,27.23,14.66,54.91,1001.80,2041.96,875.44,1069.25,1196.17,599.98,592.71,37.99,0000 0000 0000 0000 000000
2017-01-25 03:05:24,0.33,15.48,0.00,20.33,23.36,27.28,14.47,54.75,1001.97,2041.43,873.85,1068.15,1194.82,599.84,592.64,38.04,0000 0000 0000 0000 000000
2017-01-25 03:10:25,0.41,15.50,0.00,20.35,23.41,27.33,14.55,54.63,1001.98,2041.05,872.39,1067.09,1193.55,600.01,592.75,38.09,0000 0000 0000 0000 000000
2017-01-25 03:15:27,0.46,15.52,0.00,20.36,23.46,27.37,14.47,54.53,1002.29,2041.00,870.82,1065.95,1192.32,599.49,592.42,38.15,0000 0000 0000 0000 000000
2017-01-25 03:20:28,0.42,15.54,0.00,20.40,23.51,27.43,14.51,54.48,1002.28,2041.00,869.42,1064.89,1191.01,599.81,592.60,38.20,0000 0000 0000 0000 000000
2017-01-25 03:25:29,0.45,15.56,0.00,20.43,23.56,27.47,14.59,54.48,1001.99,2040.97,867.93,1063.85,1189.76,599.94,592.47,38.25,0000 0000 0000 0000 000000
2017-01-25 03:30:30,0.39,15.58,0.00,20.46,23.60,27.49,14.55,54.30,1002.01,2040.61,866.52,1062.76,1188.52,599.81,592.35,38.30,0000 0000 0000 0000 000000
2017-01-25 03:35:32,0.31,15.60,0.00,20.51,23.65,27.55,14.49,54.24,1002.17,2040.09,865.04,1061.76,1187.30,599.97,592.47,38.35,0000 0000 0000 0000 000000
2017-01-25 03:40:33,0.46,15.62,0.00,20.56,23.69,27.59,14.51,54.24,1002.45,2040.01,863.66,1060.68,1186.02,599.98,592.49,38.40,0000 0000 0000 0000 000000
2017-01-25 03:45:34,0.43,15.64,0.00,20.59,23.73,27.61,14.56,54.29,1002.10,2040.00,862.18,1059.64,1184.79,599.98,592.44,38.45,0000 0000 0000 0000 000000
2017-01-25 03:50:36,0.45,15.67,0.00,20.62,23.78,27.66,14.51,54.38,1001.98,2039.99,860.76,1058.66,1183.61,600.02,592.27,38.50,0000 0000 0000 0000 000000
2017-01-25 03:55:37,0.38,15.69,0.00,20.65,23.82,27.67,14.60,54.48,1001.97,2039.90,859.41,1057.69,1182.40,600.21,592.34,38.55,0000 0000 0000 0000 000000
2017-01-25 04:00:38,0.32,15.71,0.00,20.71,23.86,27.71,14.60,54.37,1001.99,2039.50,857.99,1056.73,1181.21,600.19,592.23,38.60,0000 0000 0000 0000 000000
2017-01-25 04:05:40,0.38,15.72,0.00,20.77,23.91,27.75,14.47,54.23,1002.06,2039.14,856.65,1055.72,1180.04,599.91,591.88,38.65,0000 0000 0000 0000 000000
2017-01-25 04:10:42,0.39,15.75,0.00,20.80,23.95,27.79,14.51,54.24,1002.41,2039.01,855.36,1054.71,1178.86,600.01,592.20,38.70,0000 0000 0000 0000 000000
2017-01-25 04:15:43,0.42,15.77,0.00,20.84,23.99,27.83,14.54,54.32,1002.45,2039.00,853.94,1053.72,1177.70,600.08,592.22,38.75,0000 0000 0000 0000 000000
2017-01-25 04:20:44,0.45,15.79,0.00,20.89,24.03,27.86,14.57,54.33,1002.46,2038.99,852.60,1052.71,1176.59,600.07,592.20,38.80,0000 0000 0000 0000 000000
2017-01-25 04:25:45,0.40,15.81,0.00,20.94,24.07,27.92,14.52,54.36,1002.46,2038.93,851.22,1051.69,1175.45,599.87,591.73,38.85,0000 0000 0000 0000 000000
2017-01-25 04:30:47,0.33,15.83,0.00,20.98,24.11,27.93,14.56,54.28,1002.46,2038.38,849.76,1050.69,1174.18,600.22,591.97,38.90,0000 0000 0000 0000 000000
2017-01-25 04:35:49,0.38,15.85,0.00,21.04,24.15,27.99,14.48,54.31,1002.09,2038.04,848.45,1049.65,1172.94,599.81,591.30,38.95,0000 0000 0000 0000 000000
2017-01-25 04:40:50,0.46,15.87,0.00,21.11,24.19,28.05,14.56,54.58,1001.93,2038.00,846.98,1048.58,1171.70,600.02,591.26,39.01,0000 0000 0000 0000 000000
2017-01-25 04:45:52,0.44,15.89,0.00,21.12,24.24,28.08,14.45,54.67,1001.83,2038.00,845.59,1047.59,1170.54,599.85,590.96,39.06,0000 0000 0000 0000 000000
2017-01-25 04:50:54,0.40,15.91,0.00,21.14,24.28,28.12,14.57,54.52,1001.96,2037.98,844.20,1046.54,1169.33,599.96,591.18,39.11,0000 0000 0000 0000 000000
2017-01-25 04:55:56,0.39,15.93,0.00,21.18,24.32,28.15,14.51,54.50,1002.11,2037.76,842.77,1045.54,1168.10,599.73,590.86,39.16,0000 0000 0000 0000 000000
2017-01-25 05:00:57,0.34,15.95,0.00,21.25,24.36,28.20,14.49,54.45,1002.45,2037.23,841.43,1044.51,1166.92,599.92,590.98,39.21,0000 0000 0000 0000 000000
2017-01-25 05:05:59,0.41,15.97,0.00,21.29,24.41,28.24,14.51,54.39,1002.46,2037.03,840.07,1043.51,1165.73,600.10,591.27,39.26,0000 0000 0000 0000 000000
2017-01-25 05:11:01,0.46,15.99,0.00,21.33,24.45,28.29,14.52,54.39,1002.46,2037.00,838.64,1042.49,1164.57,600.05,591.11,39.31,0000 0000 0000 0000 000000
2017-01-25 05:16:02,0.40,16.02,0.00,21.36,24.49,28.31,14.55,54.41,1002.45,2036.99,837.31,1041.47,1163.38,599.92,590.90,39.36,0000 0000 0000 0000 000000
2017-01-25 05:21:04,0.42,16.04,0.00,21.43,24.53,28.36,14.52,54.52,1002.44,2036.95,835.89,1040.47,1162.20,600.11,590.95,39.41,0000 0000 0000 0000 000000
2017-01-25 05:26:05,0.36,16.06,0.00,21.46,24.57,28.42,14.50,54.52,1002.46,2036.58,834.57,1039.46,1161.04,599.93,590.72,39.46,0000 0000 0000 0000 000000
2017-01-25 05:31:07,0.33,16.07,0.00,21.49,24.61,28.43,14.52,54.44,1002.46,2036.10,833.19,1038.50,1159.86,599.78,590.65,39.51,0000 0000 0000 0000 000000
2017-01-25 05:36:09,0.47,16.10,0.00,21.53,24.66,28.49,14.55,54.51,1002.46,2036.01,831.81,1037.50,1158.65,600.13,590.80,39.56,0000 0000 0000 0000 000000
2017-01-25 05:41:10,0.42,16.12,0.00,21.55,24.70,28.55,14.52,54.38,1002.46,2036.00,830.58,1036.47,1157.46,599.97,590.59,39.61,0000 0000 0000 0000 000000
2017-01-25 05:46:12,0.40,16.14,0.00,21.58,24.74,28.59,14.51,54.34,1002.46,2035.99,829.27,1035.46,1156.33,599.95,590.41,39.66,0000 0000 0000 0000 000000
2017-01-25 05:51:13,0.39,16.16,0.00,21.42,24.78,28.60,14.55,54.48,1002.46,2035.89,827.90,1034.51,1155.22,599.66,590.70,39.71,0000 0000 0000 0000 000000
2017-01-25 05:56:15,0.35,16.18,0.00,21.27,24.82,28.66,14.48,54.55,1002.46,2035.35,826.51,1033.53,1154.03,599.55,590.68,39.77,0000 0000 0000 0000 000000
2017-01-25 06:01:17,0.36,16.20,0.00,21.30,24.86,28.75,14.55,54.66,1002.46,2035.04,825.14,1032.62,1152.86,600.05,591.27,39.82,0000 0000 0000 0000 000000
2017-01-25 06:06:18,0.46,16.22,0.00,21.36,24.89,28.80,14.55,54.63,1002.46,2035.01,823.80,1031.68,1151.72,600.12,591.15,39.87,0000 0000 0000 0000 000000
2017-01-25 06:11:20,0.41,16.24,0.00,21.43,24.92,28.83,14.53,54.73,1002.45,2035.00,822.49,1030.75,1150.73,600.01,590.96,39.92,0000 0000 0000 0000 000000
2017-01-25 06:16:21,0.35,16.26,0.00,21.43,24.95,28.84,14.56,54.73,1002.40,2035.00,821.19,1029.81,1149.71,599.73,590.64,39.97,0000 0000 0000 0000 000000
2017-01-25 06:21:23,0.39,16.28,0.00,21.45,24.97,28.83,14.52,54.68,1002.33,2034.98,819.91,1028.93,1148.62,600.03,590.77,40.02,0000 0000 0000 0000 000000
2017-01-25 06:26:24,0.44,16.30,0.00,21.35,24.99,28.80,14.54,54.70,1002.45,2034.96,818.67,1028.02,1147.60,599.83,590.92,40.07,0000 0000 0000 0000 000000
2017-01-25 06:31:25,0.35,16.32,0.00,21.12,25.01,28.77,14.53,54.73,1002.47,2034.65,817.37,1027.12,1146.51,599.69,591.18,40.12,0000 0000 0000 0000 000000
2017-01-25 06:36:27,0.30,16.34,0.00,20.99,25.02,28.76,14.55,54.76,1002.48,2034.22,816.10,1026.20,1145.47,599.85,591.58,40.17,0000 0000 0000 0000 000000
2017-01-25 06:41:28,0.42,16.35,0.00,20.91,25.03,28.87,14.65,54.83,1002.56,2034.11,814.82,1025.45,1144.47,599.96,591.98,40.22,0000 0000 0000 0000 000000
2017-01-25 06:46:29,0.39,16.37,0.00,20.91,25.04,28.83,14.56,54.83,1002.77,2034.07,813.63,1024.61,1143.52,599.81,591.85,40.27,0000 0000 0000 0000 000000
2017-01-25 06:51:30,0.36,16.39,0.00,20.94,25.04,28.70,14.60,54.75,1002.75,2034.06,812.41,1023.77,1142.52,599.82,591.82,40.32,0000 0000 0000 0000 000000
2017-01-25 06:56:31,0.32,16.41,0.00,20.99,25.03,28.57,14.54,54.61,1002.93,2034.07,811.26,1023.03,1141.57,599.97,592.03,40.37,0000 0000 0000 0000 000000
2017-01-25 07:01:33,0.39,16.43,0.00,21.04,25.02,28.50,14.57,54.57,1002.93,2034.07,810.01,1022.24,1140.58,599.90,591.90,40.42,0000 0000 0000 0000 000000
2017-01-25 07:06:34,0.38,16.45,0.00,21.08,25.02,28.55,14.59,54.68,1002.68,2034.06,808.85,1021.45,1139.64,599.94,591.71,40.47,0000 0000 0000 0000 000000
2017-01-25 07:11:35,0.40,16.47,0.00,21.13,25.02,28.48,14.54,54.75,1002.51,2034.08,807.68,1020.71,1138.68,600.10,591.54,40.52,0000 0000 0000 0000 000000
2017-01-25 07:16:37,0.34,16.49,0.00,21.19,25.00,28.48,14.56,54.68,1002.64,2034.07,806.53,1019.90,1137.72,599.93,591.44,40.57,0000 0000 0000 0000 000000
2017-01-25 07:21:38,0.37,16.51,0.00,21.26,25.00,28.44,14.52,54.65,1002.91,2034.07,805.35,1019.05,1136.77,599.80,591.13,40.62,0000 0000 0000 0000 000000
2017-01-25 07:26:40,0.36,16.53,0.00,21.32,25.00,28.46,14.54,54.74,1002.94,2034.04,804.16,1018.16,1135.81,600.03,591.40,40.68,0000 0000 0000 0000 000000
2017-01-25 07:31:41,0.40,16.55,0.00,21.36,25.00,28.51,14.54,54.69,1002.94,2034.02,802.96,1017.37,1134.80,599.78,591.22,40.73,0000 0000 0000 0000 000000
2017-01-25 07:36:42,0.40,16.57,0.00,21.43,25.00,28.54,14.54,54.71,1002.94,2034.03,801.80,1016.57,1133.84,599.75,590.85,40.78,0000 0000 0000 0000 000000
2017-01-25 07:41:43,0.35,16.59,0.00,21.48,25.00,28.61,14.51,54.66,1002.96,2034.01,800.64,1015.81,1132.89,599.83,591.06,40.83,0000 0000 0000 0000 000000
2017-01-25 07:46:45,0.38,16.60,0.00,21.55,25.02,28.63,14.44,54.67,1003.01,2034.02,799.50,1014.93,1131.93,599.91,590.83,40.88,0000 0000 0000 0000 000000
2017-01-25 07:51:46,0.38,16.63,0.00,21.61,25.02,28.68,14.44,54.74,1003.08,2034.01,798.28,1014.05,1130.94,599.69,590.57,40.93,0000 0000 0000 0000 000000
2017-01-25 07:56:47,0.37,16.65,0.00,21.63,25.05,28.67,14.50,54.67,1003.04,2034.00,797.06,1013.22,1129.99,600.10,590.93,40.98,0000 0000 0000 0000 000000
2017-01-25 08:01:49,0.41,16.67,0.00,21.71,25.06,28.73,14.54,54.78,1003.22,2034.00,795.90,1012.39,1129.00,600.10,590.93,41.03,0000 0000 0000 0000 000000
2017-01-25 08:06:50,0.45,16.68,0.00,21.78,25.08,28.77,14.55,54.75,1003.39,2033.99,794.64,1011.57,1127.97,599.66,590.39,41.08,0000 0000 0000 0000 000000
2017-01-25 08:11:51,0.41,16.71,0.00,21.82,25.10,28.78,14.52,54.65,1003.42,2033.99,793.31,1010.60,1126.98,600.28,591.00,41.13,0000 0000 0000 0000 000000
2017-01-25 08:16:52,0.35,16.73,0.00,21.87,25.13,28.84,14.53,54.58,1003.43,2033.97,792.14,1009.79,1125.91,600.30,590.73,41.18,0000 0000 0000 0000 000000
2017-01-25 08:21:54,0.42,16.75,0.00,21.92,25.16,28.86,14.51,54.58,1003.43,2033.95,790.92,1008.85,1124.86,599.93,590.47,41.23,0000 0000 0000 0000 000000
2017-01-25 08:26:55,0.37,16.77,0.00,21.97,25.19,28.89,14.50,54.56,1003.43,2033.77,789.74,1008.01,1123.83,599.93,590.30,41.28,0000 0000 0000 0000 000000
2017-01-25 08:31:57,0.37,16.79,0.00,22.03,25.22,28.93,14.47,54.67,1003.43,2033.39,788.55,1007.14,1122.84,599.95,590.21,41.33,0000 0000 0000 0000 000000
2017-01-25 08:36:58,0.36,16.80,0.00,22.09,25.25,28.99,14.47,54.78,1003.42,2033.08,787.40,1006.18,1121.81,599.89,590.10,41.38,0000 0000 0000 0000 000000
2017-01-25 08:42:00,0.38,16.82,0.00,22.12,25.29,29.03,14.47,54.73,1003.43,2033.01,786.20,1005.35,1120.81,599.84,589.91,41.43,0000 0000 0000 0000 000000
2017-01-25 08:47:01,0.41,16.84,0.00,22.14,25.33,29.07,14.47,54.77,1003.40,2033.00,785.00,1004.45,1119.78,600.09,589.90,41.48,0000 0000 0000 0000 000000
2017-01-25 08:52:02,0.45,16.86,0.00,22.20,25.36,29.11,14.50,54.89,1003.25,2032.98,783.81,1003.58,1118.63,599.95,589.77,41.54,0000 0000 0000 0000 000000
2017-01-25 08:57:04,0.39,16.88,0.00,22.27,25.40,29.16,14.48,54.78,1003.21,2032.94,782.66,1002.70,1117.64,599.65,589.39,41.59,0000 0000 0000 0000 000000
2017-01-25 09:02:05,0.29,16.90,0.00,22.31,25.44,29.20,14.50,54.65,1003.39,2032.48,781.50,1001.82,1116.56,600.18,589.81,41.64,0000 0000 0000 0000 000000
2017-01-25 09:07:07,0.33,16.92,0.00,22.36,25.48,29.24,14.49,54.73,1003.43,2032.06,780.36,1000.94,1115.55,600.00,589.58,41.69,0000 0000 0000 0000 000000
2017-01-25 09:12:08,0.38,16.94,0.00,22.40,25.52,29.29,14.52,54.72,1003.43,2032.01,779.20,1000.06,1114.58,600.20,589.78,41.74,0000 0000 0000 0000 000000
2017-01-25 09:17:10,0.41,16.96,0.00,22.43,25.56,29.33,14.53,54.65,1003.46,2032.00,778.00,999.19,1113.57,600.16,589.61,41.79,0000 0000 0000 0000 000000
2017-01-25 09:22:11,0.43,16.98,0.00,22.43,25.61,29.38,14.43,54.60,1003.49,2032.00,776.84,998.32,1112.59,599.78,589.31,41.84,0000 0000 0000 0000 000000
2017-01-25 09:27:12,0.41,17.00,0.00,22.44,25.65,29.43,14.40,54.61,1003.58,2031.98,775.70,997.53,1111.62,599.90,589.32,41.89,0000 0000 0000 0000 000000
2017-01-25 09:32:13,0.36,17.02,0.00,22.49,25.69,29.45,14.49,54.56,1003.69,2031.77,774.54,996.64,1110.55,600.22,589.54,41.94,0000 0000 0000 0000 000000
2017-01-25 09:37:15,0.28,17.03,0.00,22.53,25.73,29.52,14.45,54.55,1003.57,2031.24,773.39,995.77,1109.52,599.89,589.22,41.99,0000 0000 0000 0000 000000
2017-01-25 09:42:16,0.35,17.05,0.00,22.57,25.77,29.55,14.43,54.65,1003.44,2031.01,772.22,994.89,1108.53,599.71,588.82,42.04,0000 0000 0000 0000 000000
2017-01-25 09:47:17,0.39,17.08,0.00,22.62,25.81,29.58,14.43,54.62,1003.44,2031.00,771.04,994.02,1107.50,599.70,588.86,42.09,0000 0000 0000 0000 000000
2017-01-25 09:52:18,0.46,17.10,0.00,22.65,25.85,29.63,14.39,54.48,1003.57,2030.99,769.81,993.12,1106.48,599.91,589.03,42.14,0000 0000 0000 0000 000000
2017-01-25 09:57:20,0.42,17.12,0.00,22.64,25.89,29.68,14.50,54.70,1003.79,2030.91,768.62,992.18,1105.42,600.32,589.55,42.19,0000 0000 0000 0000 000000
2017-01-25 10:02:21,0.29,17.13,0.00,22.66,25.93,29.71,14.53,54.69,1003.91,2030.46,767.47,991.41,1104.37,600.13,589.43,42.24,0000 0000 0000 0000 000000
2017-01-25 10:07:22,0.40,17.15,0.00,22.70,25.97,29.74,14.43,54.73,1003.92,2030.06,766.20,990.33,1103.25,599.70,589.06,42.29,0000 0000 0000 0000 000000
2017-01-25 10:12:24,0.43,17.17,0.00,22.74,26.01,29.79,14.47,54.75,1003.92,2030.00,764.91,989.47,1102.14,599.94,588.97,42.34,0000 0000 0000 0000 000000
2017-01-25 10:17:25,0.44,17.20,0.00,22.79,26.05,29.81,14.41,54.71,1003.92,2030.00,763.78,988.53,1101.14,599.66,588.61,42.39,0000 0000 0000 0000 000000
2017-01-25 10:22:26,0.43,17.22,0.00,22.82,26.09,29.84,14.48,54.76,1003.92,2029.98,762.56,987.69,1100.13,600.22,589.17,42.44,0000 0000 0000 0000 000000
2017-01-25 10:27:27,0.29,17.24,0.00,22.96,26.12,29.87,14.46,54.83,1003.92,2029.63,761.35,986.82,1099.12,600.00,588.64,42.50,0000 0000 0000 0000 000000
2017-01-25 10:32:29,0.32,17.25,0.00,23.08,26.17,29.92,14.46,54.70,1003.95,2029.22,760.17,985.99,1098.11,600.07,588.52,42.55,0000 0000 0000 0000 000000
2017-01-25 10:37:30,0.40,17.27,0.00,23.09,26.21,29.95,14.45,54.74,1003.93,2029.03,759.00,985.10,1097.09,599.97,588.48,42.60,0000 0000 0000 0000 000000
2017-01-25 10:42:31,0.47,17.29,0.00,23.08,26.25,30.01,14.45,54.81,1003.94,2029.00,757.78,984.24,1096.08,600.14,588.57,42.65,0000 0000 0000 0000 000000
2017-01-25 10:47:33,0.44,17.31,0.00,23.13,26.29,30.05,14.37,54.92,1003.92,2029.00,756.62,983.39,1095.07,600.03,588.35,42.70,0000 0000 0000 0000 000000
2017-01-25 10:52:34,0.42,17.34,0.00,23.12,26.33,30.11,14.46,54.80,1003.92,2028.98,755.47,982.50,1094.06,600.00,588.33,42.75,0000 0000 0000 0000 000000
2017-01-25 10:57:35,0.34,17.36,0.00,23.08,26.36,30.15,14.38,54.84,1003.92,2028.90,754.31,981.72,1093.11,599.94,588.31,42.80,0000 0000 0000 0000 000000
2017-01-25 11:02:36,0.28,17.37,0.00,23.09,26.40,30.19,14.39,54.67,1003.93,2028.42,753.18,980.86,1092.13,600.04,588.45,42.85,0000 0000 0000 0000 000000
2017-01-25 11:07:37,0.34,17.39,0.00,23.17,26.43,30.18,14.48,54.83,1004.13,2028.09,752.04,980.03,1091.12,600.19,588.61,42.90,0000 0000 0000 0000 000000
2017-01-25 11:12:39,0.42,17.41,0.00,23.26,26.46,30.19,14.44,54.82,1004.28,2028.01,750.96,979.20,1090.17,599.85,588.17,42.95,0000 0000 0000 0000 000000
2017-01-25 11:17:40,0.44,17.43,0.00,23.28,26.49,30.20,14.41,55.00,1004.36,2028.00,749.80,978.39,1089.17,599.98,588.22,43.00,0000 0000 0000 0000 000000
2017-01-25 11:22:41,0.40,17.45,0.00,23.31,26.51,30.24,14.48,54.83,1004.38,2027.99,748.74,977.58,1088.23,600.09,588.39,43.05,0000 0000 0000 0000 000000
2017-01-25 11:27:42,0.40,17.47,0.00,23.27,26.54,30.28,14.46,54.92,1004.41,2027.97,747.62,976.77,1087.24,600.02,588.32,43.10,0000 0000 0000 0000 000000
2017-01-25 11:32:43,0.33,17.49,0.00,23.30,26.56,30.32,14.46,54.90,1004.40,2027.88,746.55,975.99,1086.51,600.19,588.41,43.15,0000 0000 0000 0000 000000
2017-01-25 11:37:45,0.38,17.51,0.00,23.37,26.58,30.30,14.47,54.85,1004.40,2027.69,745.45,975.14,1085.58,600.39,588.52,43.20,0000 0000 0000 0000 000000
2017-01-25 11:42:47,0.31,17.52,0.00,23.35,26.60,30.32,14.45,54.90,1004.39,2027.26,744.40,974.36,1084.68,599.79,587.97,43.25,0000 0000 0000 0000 000000
2017-01-25 11:47:48,0.38,17.54,0.00,23.41,26.62,30.34,14.44,54.98,1004.38,2027.07,743.34,973.50,1083.69,600.00,588.12,43.30,0000 0000 0000 0000 000000
2017-01-25 11:52:49,0.38,17.56,0.00,23.42,26.65,30.34,14.44,54.89,1004.33,2027.01,742.16,972.69,1082.68,600.07,588.24,43.35,0000 0000 0000 0000 000000
2017-01-25 11:57:50,0.37,17.58,0.00,23.38,26.66,30.36,14.49,55.03,1004.18,2027.00,741.01,971.88,1081.72,600.36,588.39,43.41,0000 0000 0000 0000 000000
2017-01-25 12:02:52,0.37,17.61,0.00,23.44,26.67,30.37,14.50,54.98,1004.19,2027.00,739.97,971.04,1080.85,600.34,588.16,43.46,0000 0000 0000 0000 000000
2017-01-25 12:07:53,0.39,17.62,0.00,23.46,26.70,30.37,14.37,54.97,1004.17,2027.00,738.93,970.23,1079.99,599.78,587.65,43.51,0000 0000 0000 0000 000000
2017-01-25 12:12:54,0.39,17.64,0.00,23.46,26.71,30.37,14.44,54.77,1004.12,2027.00,737.92,969.55,1079.11,599.99,587.80,43.56,0000 0000 0000 0000 000000
2017-01-25 12:17:56,0.32,17.66,0.00,23.46,26.72,30.38,14.38,54.86,1004.17,2026.99,736.92,968.89,1078.22,600.15,587.97,43.61,0000 0000 0000 0000 000000
2017-01-25 12:22:57,0.38,17.68,0.00,23.50,26.75,30.39,14.40,54.86,1004.17,2026.98,735.96,968.06,1077.33,600.26,587.95,43.66,0000 0000 0000 0000 000000
2017-01-25 12:27:58,0.45,17.70,0.00,23.49,26.75,30.40,14.43,55.00,1004.12,2026.96,734.81,967.36,1076.55,599.93,587.63,43.71,0000 0000 0000 0000 000000
2017-01-25 12:32:59,0.32,17.72,0.00,23.49,26.77,30.40,14.43,54.91,1004.05,2026.89,733.78,966.71,1075.77,600.13,587.78,43.76,0000 0000 0000 0000 000000
2017-01-25 12:38:01,0.26,17.74,0.00,23.54,26.78,30.43,14.45,54.77,1004.24,2026.68,732.83,965.99,1074.89,600.43,588.07,43.81,0000 0000 0000 0000 000000
2017-01-25 12:43:02,0.33,17.75,0.00,23.56,26.80,30.42,14.41,54.84,1004.32,2026.24,731.83,965.12,1074.00,600.16,587.86,43.86,0000 0000 0000 0000 000000
2017-01-25 12:48:03,0.39,17.77,0.00,23.53,26.80,30.42,14.37,55.01,1004.29,2026.15,730.79,964.44,1073.09,599.87,587.60,43.91,0000 0000 0000 0000 000000
2017-01-25 12:53:05,0.36,17.79,0.00,23.50,26.80,30.45,14.46,55.02,1004.25,2026.05,729.79,963.71,1072.21,599.88,587.66,43.96,0000 0000 0000 0000 000000
2017-01-25 12:58:06,0.34,17.81,0.00,23.54,26.82,30.45,14.38,55.08,1004.29,2026.02,728.80,962.98,1071.35,599.73,587.40,44.01,0000 0000 0000 0000 000000